Time,TemperatureF,DewpointF,PressureIn,WindDirection,WindDirectionDegrees,WindSpeedMPH,WindSpeedGustMPH,Humidity,HourlyPrecipIn,Conditions,Clouds,dailyrainin,SoftwareType,DateUTC
2013-01-25 00:00:00,-999.0,-99.9,30.22,WSW,247,6.0,-999.0,-999,-99.99,,,0.00,weatherlink.com 1.10,2013-01-25 05:00:00,
2013-01-25 00:15:00,-999.0,-99.9,30.22,West,263,12.0,-999.0,-999,-99.99,,,0.00,weatherlink.com 1.10,2013-01-25 05:15:00,
2013-01-25 00:30:00,-999.0,-99.9,30.23,WSW,237,10.0,-999.0,-999,-99.99,,,0.00,weatherlink.com 1.10,2013-01-25 05:30:00,
2013-01-25 00:45:00,-999.0,-99.9,30.23,WNW,303,6.0,-999.0,-999,-99.99,,,0.00,weatherlink.com 1.10,2013-01-25 05:45:00,
2013-01-25 01:00:00,-999.0,-99.9,30.23,South,182,2.0,-999.0,-999,-99.99,,,0.00,weatherlink.com 1.10,2013-01-25 06:00:00,
2013-01-25 01:15:00,-999.0,-99.9,30.23,WSW,243,9.0,-999.0,-999,-99.99,,,0.00,weatherlink.com 1.10,2013-01-25 06:15:00,
2013-01-25 01:30:00,-999.0,-99.9,30.23,NNE,33,4.0,-999.0,-999,-99.99,,,0.00,weatherlink.com 1.10,2013-01-25 06:30:00,
2013-01-25 01:45:00,-999.0,-99.9,30.25,SW,235,6.0,-999.0,-999,-99.99,,,0.00,weatherlink.com 1.10,2013-01-25 06:45:00,
2013-01-25 02:00:00,-999.0,-99.9,30.25,North,355,1.0,-999.0,-999,-99.99,,,0.00,weatherlink.com 1.10,2013-01-25 07:00:00,
2013-01-25 02:15:00,-999.0,-99.9,30.25,West,260,5.0,-999.0,-999,-99.99,,,0.00,weatherlink.com 1.10,2013-01-25 07:15:00,
2013-01-25 02:30:00,-999.0,-99.9,30.24,West,262,3.0,-999.0,-999,-99.99,,,0.00,weatherlink.com 1.10,2013-01-25 07:30:00,
2013-01-25 02:45:00,-999.0,-99.9,30.25,WNW,291,2.0,-999.0,-999,-99.99,,,0.00,weatherlink.com 1.10,2013-01-25 07:45:00,
2013-01-25 03:00:00,-999.0,-99.9,30.25,West,272,4.0,-999.0,-999,-99.99,,,0.00,weatherlink.com 1.10,2013-01-25 08:00:00,
2013-01-25 03:15:00,-999.0,-99.9,30.26,NW,316,2.0,-999.0,-999,-99.99,,,0.00,weatherlink.com 1.10,2013-01-25 08:15:00,
2013-01-25 03:30:00,-999.0,-99.9,30.25,WNW,287,3.0,-999.0,-999,-99.99,,,0.00,weatherlink.com 1.10,2013-01-25 08:30:00,
2013-01-25 03:45:00,-999.0,-99.9,30.25,SE,129,1.0,-999.0,-999,-99.99,,,0.00,weatherlink.com 1.10,2013-01-25 08:45:00,
2013-01-25 04:00:00,-999.0,-99.9,30.25,SW,233,3.0,-999.0,-999,-99.99,,,0.00,weatherlink.com 1.10,2013-01-25 09:00:00,
2013-01-25 04:15:00,-999.0,-99.9,30.24,SSE,149,1.0,-999.0,-999,-99.99,,,0.00,weatherlink.com 1.10,2013-01-25 09:15:00,
2013-01-25 04:30:00,-999.0,-99.9,30.24,WNW,300,5.0,-999.0,-999,-99.99,,,0.00,weatherlink.com 1.10,2013-01-25 09:30:00,
2013-01-25 04:45:00,-999.0,-99.9,30.24,West,271,2.0,-999.0,-999,-99.99,,,0.00,weatherlink.com 1.10,2013-01-25 09:45:00,
2013-01-25 05:00:00,-999.0,-99.9,30.24,SSW,213,4.0,-999.0,-999,-99.99,,,0.00,weatherlink.com 1.10,2013-01-25 10:00:00,
2013-01-25 05:15:00,-999.0,-99.9,30.24,WNW,282,4.0,-999.0,-999,-99.99,,,0.00,weatherlink.com 1.10,2013-01-25 10:15:00,
2013-01-25 05:30:00,-999.0,-99.9,30.25,WSW,243,4.0,-999.0,-999,-99.99,,,0.00,weatherlink.com 1.10,2013-01-25 10:30:00,
2013-01-25 05:45:00,-999.0,-99.9,30.25,WSW,248,8.0,-999.0,-999,-99.99,,,0.00,weatherlink.com 1.10,2013-01-25 10:45:00,
2013-01-25 06:00:00,-999.0,-99.9,30.25,SW,215,2.0,-999.0,-999,-99.99,,,0.00,weatherlink.com 1.10,2013-01-25 11:00:00,
2013-01-25 06:15:00,-999.0,-99.9,30.25,West,265,2.0,-999.0,-999,-99.99,,,0.00,weatherlink.com 1.10,2013-01-25 11:15:00,
2013-01-25 06:30:00,-999.0,-99.9,30.25,NNE,27,1.0,-999.0,-999,-99.99,,,0.00,weatherlink.com 1.10,2013-01-25 11:30:00,
2013-01-25 06:45:00,-999.0,-99.9,30.25,SW,226,4.0,-999.0,-999,-99.99,,,0.00,weatherlink.com 1.10,2013-01-25 11:45:00,
2013-01-25 07:00:00,-999.0,-99.9,30.24,WNW,288,6.0,-999.0,-999,-99.99,,,0.00,weatherlink.com 1.10,2013-01-25 12:00:00,
2013-01-25 07:15:00,-999.0,-99.9,30.26,NNW,329,9.0,-999.0,-999,-99.99,,,0.00,weatherlink.com 1.10,2013-01-25 12:15:00,
2013-01-25 07:30:00,16.4,3.0,30.26,SE,132,2.0,-999.0,56,-99.99,,,0.00,weatherlink.com 1.10,2013-01-25 12:30:00,
2013-01-25 07:45:00,16.9,4.0,30.28,South,189,3.0,-999.0,58,-99.99,,,0.00,weatherlink.com 1.10,2013-01-25 12:45:00,
2013-01-25 08:00:00,17.0,4.0,30.27,NW,305,12.0,-999.0,56,-99.99,,,0.00,weatherlink.com 1.10,2013-01-25 13:00:00,
2013-01-25 08:15:00,17.5,4.0,30.28,SW,227,4.0,-999.0,55,-99.99,,,0.00,weatherlink.com 1.10,2013-01-25 13:15:00,
2013-01-25 08:30:00,17.7,3.0,30.27,SSW,193,9.0,-999.0,53,-99.99,,,0.00,weatherlink.com 1.10,2013-01-25 13:30:00,
2013-01-25 08:45:00,17.5,3.0,30.27,SSW,210,2.0,-999.0,52,-99.99,,,0.00,weatherlink.com 1.10,2013-01-25 13:45:00,
2013-01-25 09:00:00,18.1,3.0,30.27,West,271,0.0,-999.0,51,-99.99,,,0.00,weatherlink.com 1.10,2013-01-25 14:00:00,
2013-01-25 09:15:00,18.1,3.0,30.27,North,2,4.0,-999.0,52,-99.99,,,0.00,weatherlink.com 1.10,2013-01-25 14:15:00,
2013-01-25 09:30:00,18.1,3.0,30.27,North,354,10.0,-999.0,52,-99.99,,,0.00,weatherlink.com 1.10,2013-01-25 14:30:00,
2013-01-25 09:45:00,18.6,4.0,30.28,WNW,298,4.0,-999.0,53,-99.99,,,0.00,weatherlink.com 1.10,2013-01-25 14:45:00,
2013-01-25 10:00:00,18.9,4.0,30.27,West,259,4.0,-999.0,52,-99.99,,,0.00,weatherlink.com 1.10,2013-01-25 15:00:00,
2013-01-25 10:15:00,19.2,4.0,30.27,West,264,7.0,-999.0,52,-99.99,,,0.00,weatherlink.com 1.10,2013-01-25 15:15:00,
2013-01-25 10:30:00,20.3,5.0,30.27,West,272,4.0,-999.0,52,-99.99,,,0.00,weatherlink.com 1.10,2013-01-25 15:30:00,
2013-01-25 10:45:00,19.9,5.0,30.27,West,276,7.0,-999.0,52,-99.99,,,0.00,weatherlink.com 1.10,2013-01-25 15:45:00,
2013-01-25 11:00:00,20.5,5.0,30.27,WNW,287,3.0,-999.0,51,-99.99,,,0.00,weatherlink.com 1.10,2013-01-25 16:00:00,
2013-01-25 11:15:00,20.6,5.0,30.27,SW,223,3.0,-999.0,52,-99.99,,,0.00,weatherlink.com 1.10,2013-01-25 16:15:00,
2013-01-25 11:30:00,21.4,6.0,30.26,West,266,3.0,-999.0,51,-99.99,,,0.00,weatherlink.com 1.10,2013-01-25 16:30:00,
2013-01-25 11:46:00,22.7,7.0,30.23,WSW,247,2.0,-999.0,51,-99.99,,,0.00,weatherlink.com 1.10,2013-01-25 16:46:00,
2013-01-25 12:00:00,21.9,5.0,30.23,West,274,5.0,-999.0,49,-99.99,,,0.00,weatherlink.com 1.10,2013-01-25 17:00:00,
2013-01-25 12:15:00,21.4,7.0,30.22,WSW,249,3.0,-999.0,55,-99.99,,,0.00,weatherlink.com 1.10,2013-01-25 17:15:00,
2013-01-25 12:30:00,21.8,7.0,30.21,WSW,242,3.0,-999.0,53,-99.99,,,0.00,weatherlink.com 1.10,2013-01-25 17:30:00,
2013-01-25 12:45:00,22.5,6.0,30.19,West,268,1.0,-999.0,49,-99.99,,,0.00,weatherlink.com 1.10,2013-01-25 17:45:00,
2013-01-25 13:00:00,22.4,6.0,30.18,WNW,285,5.0,-999.0,50,-99.99,,,0.00,weatherlink.com 1.10,2013-01-25 18:00:00,
2013-01-25 13:15:00,22.9,6.0,30.17,West,270,3.0,-999.0,48,-99.99,,,0.00,weatherlink.com 1.10,2013-01-25 18:15:00,
2013-01-25 13:30:00,22.7,6.0,30.16,SSW,202,3.0,-999.0,49,-99.99,,,0.00,weatherlink.com 1.10,2013-01-25 18:30:00,
2013-01-25 13:45:00,23.0,8.0,30.16,SW,220,4.0,-999.0,52,-99.99,,,0.00,weatherlink.com 1.10,2013-01-25 18:45:00,
2013-01-25 14:00:00,22.9,6.0,30.16,SW,227,1.0,-999.0,48,-99.99,,,0.00,weatherlink.com 1.10,2013-01-25 19:00:00,
2013-01-25 14:15:00,22.9,6.0,30.15,WSW,245,3.0,-999.0,49,-99.99,,,0.00,weatherlink.com 1.10,2013-01-25 19:15:00,
2013-01-25 14:30:00,23.0,6.0,30.14,SW,230,4.0,-999.0,48,-99.99,,,0.00,weatherlink.com 1.10,2013-01-25 19:30:00,
2013-01-25 14:45:00,23.2,7.0,30.14,West,272,1.0,-999.0,50,-99.99,,,0.00,weatherlink.com 1.10,2013-01-25 19:45:00,
2013-01-25 15:00:00,23.2,7.0,30.13,SW,229,6.0,-999.0,50,-99.99,,,0.00,weatherlink.com 1.10,2013-01-25 20:00:00,
2013-01-25 15:15:00,23.3,8.0,30.13,South,189,4.0,-999.0,51,-99.99,,,0.00,weatherlink.com 1.10,2013-01-25 20:15:00,
2013-01-25 15:30:00,23.3,7.0,30.13,WSW,245,5.0,-999.0,49,-99.99,,,0.00,weatherlink.com 1.10,2013-01-25 20:30:00,
2013-01-25 15:45:00,23.3,8.0,30.11,SSW,206,3.0,-999.0,51,-99.99,,,0.00,weatherlink.com 1.10,2013-01-25 20:45:00,
2013-01-25 16:00:00,23.3,7.0,30.10,WSW,244,2.0,-999.0,50,-99.99,,,0.00,weatherlink.com 1.10,2013-01-25 21:00:00,
2013-01-25 16:15:00,23.3,8.0,30.10,SW,233,3.0,-999.0,52,-99.99,,,0.00,weatherlink.com 1.10,2013-01-25 21:15:00,
2013-01-25 16:30:00,-999.0,-99.9,30.11,WSW,247,2.0,-999.0,-999,-99.99,,,0.00,weatherlink.com 1.10,2013-01-25 21:30:00,
2013-01-25 16:45:00,-999.0,-99.9,30.09,SW,225,3.0,-999.0,-999,-99.99,,,0.00,weatherlink.com 1.10,2013-01-25 21:45:00,
2013-01-25 17:00:00,-999.0,-99.9,30.10,SW,219,2.0,-999.0,-999,-99.99,,,0.00,weatherlink.com 1.10,2013-01-25 22:00:00,
2013-01-25 17:15:00,-999.0,-99.9,30.09,SW,214,2.0,-999.0,-999,-99.99,,,0.00,weatherlink.com 1.10,2013-01-25 22:15:00,
2013-01-25 17:30:00,-999.0,-99.9,30.08,SW,227,1.0,-999.0,-999,-99.99,,,0.00,weatherlink.com 1.10,2013-01-25 22:30:00,
2013-01-25 17:45:00,-999.0,-99.9,30.08,SW,217,4.0,-999.0,-999,-99.99,,,0.00,weatherlink.com 1.10,2013-01-25 22:45:00,
2013-01-25 18:00:00,-999.0,-99.9,30.08,SW,215,4.0,-999.0,-999,-99.99,,,0.00,weatherlink.com 1.10,2013-01-25 23:00:00,
2013-01-25 18:15:00,-999.0,-99.9,30.08,SW,234,1.0,-999.0,-999,-99.99,,,0.00,weatherlink.com 1.10,2013-01-25 23:15:00,